This is the latest recevied weather packets stored in our database for station/object DL2MWB-13. If no packets are shown the sender has not sent any weather packets the latest 10 day(s).
| Time | Temp. | Humidity | Pressure | Rain* | Wind** | Luminosity | Snow |
|---|---|---|---|---|---|---|---|
| 1777727239 | 21.67° C | 31% | 1025 hPa | - | - | - | - |
| 1777726635 | 21.67° C | 31% | 1025 hPa | - | - | - | - |
| 1777726032 | 22.22° C | 33% | 1025 hPa | - | - | - | - |
| 1777725428 | 20.56° C | 33% | 1026 hPa | - | - | - | - |
| 1777724825 | 20.56° C | 35% | 1026 hPa | - | - | - | - |
| 1777724221 | 20° C | 33% | 1026 hPa | - | - | - | - |
| 1777723618 | 19.44° C | 37% | 1026 hPa | - | - | - | - |
| 1777723014 | 20° C | 35% | 1026 hPa | - | - | - | - |
| 1777722411 | 20° C | 39% | 1026 hPa | - | - | - | - |
| 1777721807 | 20° C | 39% | 1026 hPa | - | - | - | - |
| 1777721204 | 18.89° C | 39% | 1026 hPa | - | - | - | - |
| 1777720600 | 18.89° C | 39% | 1027 hPa | - | - | - | - |
| 1777719997 | 18.89° C | 41% | 1027 hPa | - | - | - | - |
| 1777719393 | 18.89° C | 41% | 1027 hPa | - | - | - | - |
| 1777718790 | 18.89° C | 42% | 1027 hPa | - | - | - | - |
| 1777718187 | 18.33° C | 41% | 1027 hPa | - | - | - | - |
| 1777717583 | 18.33° C | 42% | 1027 hPa | - | - | - | - |
| 1777716979 | 18.33° C | 41% | 1027 hPa | - | - | - | - |
| 1777716376 | 18.33° C | 40% | 1027 hPa | - | - | - | - |
| 1777715772 | 17.78° C | 43% | 1027 hPa | - | - | - | - |
| 1777715169 | 17.22° C | 45% | 1027 hPa | - | - | - | - |
| 1777714565 | 16.67° C | 47% | 1027 hPa | - | - | - | - |
| 1777713962 | 16.67° C | 47% | 1028 hPa | - | - | - | - |
| 1777713358 | 16.11° C | 48% | 1028 hPa | - | - | - | - |
| 1777712755 | 16.11° C | 48% | 1028 hPa | - | - | - | - |
* Rain since midnight (hover to see other rain measurements)
** Current wind speed in m/s (hover to see current wind gust speed)